Overview Statistics Trail Chart Weather Telemetry Raw packets
 

This is the latest recevied weather packets stored in our database for station/object TB1YZC-13. If no packets are shown the sender has not sent any weather packets the latest 10 day(s).

<< 7 8 9 10 11 12 13 >>
Time Temp. Humidity Pressure Rain* Wind** Luminosity Snow
1788539420 23.33° C 78% 1018.2 hPa - - - -
1788538817 23.33° C 77% 1018.1 hPa - - - -
1788538234 23.33° C 76% 1018 hPa - - - -
1788537611 23.89° C 75% 1018.1 hPa - - - -
1788537008 23.89° C 74% 1018.1 hPa - - - -
1788536405 24.44° C 73% 1017.9 hPa - - - -
1788535801 24.44° C 71% 1017.8 hPa - - - -
1788535221 24.44° C 71% 1017.7 hPa - - - -
1788534595 25° C 68% 1017.6 hPa - - - -
1788533992 25° C 65% 1017.6 hPa - - - -
1788533389 25° C 66% 1017.5 hPa - - - -
1788532786 25° C 67% 1017.6 hPa - - - -
1788532182 25.56° C 65% 1017.4 hPa - - - -
1788531579 25.56° C 63% 1017.4 hPa - - - -
1788530976 25.56° C 61% 1017.2 hPa - - - -
1788530373 25.56° C 61% 1017.2 hPa - - - -
1788529770 26.11° C 58% 1017.2 hPa - - - -
1788529167 26.11° C 56% 1017.3 hPa - - - -
1788528563 26.11° C 57% 1017.3 hPa - - - -
1788527960 26.11° C 59% 1017.3 hPa - - - -
1788527357 26.11° C 58% 1017.4 hPa - - - -
1788526754 26.11° C 56% 1017.3 hPa - - - -
1788526151 26.67° C 55% 1017.2 hPa - - - -
1788525548 27.78° C 53% 1017.1 hPa - - - -
1788524944 28.33° C 48% 1017.1 hPa - - - -

* Rain since midnight (hover to see other rain measurements)
** Current wind speed in m/s (hover to see current wind gust speed)